Location: Sevilla
(37.3933°N, 5.9839°W)
Time: 22:55:20
(UTC+02:00)

Altair - All Passes

Search period start: 23 June 2024 00:00
Search period end: 03 July 2024 00:00
Orbit: 1502 x 1682 km, 47.2° (Epoch: 22 June)

Date Brightness Start Highest point End Pass type
(mag) Time Alt. Az. Time Alt. Az. Time Alt. Az.
23 Jun - 00:54:08 10° SSE 00:58:35 15° ESE 01:03:03 10° E visible
23 Jun - 02:52:49 10° SW 03:01:46 61° SE 03:10:56 10° ENE visible
23 Jun - 04:57:30 10° W 05:06:36 60° NNW 05:16:02 10° ENE visible
23 Jun - 07:03:50 10° WNW 07:12:49 47° N 07:22:09 10° ENE daylight
23 Jun - 09:09:10 10° WNW 09:18:46 75° NNE 09:28:44 10° ESE daylight
23 Jun - 11:14:16 10° WNW 11:23:14 43° SW 11:32:28 10° SSE daylight
24 Jun - 00:30:10 10° SE 00:33:32 12° ESE 00:36:54 10° E visible
24 Jun - 02:27:47 10° SSW 02:36:38 56° SE 02:45:40 10° ENE visible
24 Jun - 04:32:13 10° WSW 04:41:20 62° NNW 04:50:45 10° ENE visible
24 Jun - 06:38:33 10° WNW 06:47:29 47° N 06:56:45 10° ENE daylight
24 Jun - 08:43:57 10° WNW 08:53:30 71° NNE 09:03:25 10° ESE daylight
24 Jun - 10:48:58 10° WNW 10:58:04 47° SW 11:07:27 10° SSE daylight
25 Jun - 00:07:01 10° SE 00:08:29 10° ESE 00:09:57 10° ESE visible
25 Jun - 02:02:46 10° SSW 02:11:30 52° SE 02:20:23 10° ENE visible
25 Jun - 04:06:56 10° WSW 04:16:04 65° NNW 04:25:29 10° ENE visible
25 Jun - 06:13:15 10° WNW 06:22:08 46° N 06:31:22 10° ENE visible
25 Jun - 08:18:45 10° WNW 08:28:13 67° NNE 08:38:04 10° ESE daylight
25 Jun - 10:23:42 10° WNW 10:32:54 51° SW 10:42:25 10° SSE daylight
25 Jun - 12:33:40 10° WSW 12:36:08 11° WSW 12:38:38 10° SW daylight
26 Jun - 01:37:46 10° SSW 01:46:22 47° SE 01:55:05 10° ENE visible
26 Jun - 03:41:40 10° WSW 03:50:49 68° NNW 04:00:14 10° ENE visible
26 Jun - 05:47:56 10° WNW 05:56:48 46° N 06:05:59 10° ENE visible
26 Jun - 07:53:32 10° WNW 08:02:57 64° NNE 08:12:43 10° ESE daylight
26 Jun - 09:58:27 10° WNW 10:07:44 55° SW 10:17:21 10° SSE daylight
26 Jun - 12:07:05 10° W 12:11:03 13° WSW 12:15:04 10° SSW daylight
27 Jun - 01:12:49 10° SSW 01:21:15 43° SE 01:29:47 10° ENE visible
27 Jun - 03:16:24 10° WSW 03:25:34 72° NNW 03:34:58 10° ENE visible
27 Jun - 05:22:37 10° WNW 05:31:29 46° N 05:40:37 10° ENE visible
27 Jun - 07:28:19 10° WNW 07:37:40 61° NNE 07:47:21 10° ESE daylight
27 Jun - 09:33:12 10° WNW 09:42:33 60° SW 09:52:15 10° SE daylight
27 Jun - 11:41:01 10° W 11:45:58 15° WSW 11:50:59 10° SSW daylight
28 Jun - 00:47:53 10° SSW 00:56:09 39° SE 01:04:28 10° ENE visible
28 Jun - 02:51:09 10° WSW 03:00:21 76° NNW 03:09:44 10° ENE visible
28 Jun - 04:57:18 10° WNW 05:06:09 47° N 05:15:16 10° ENE visible
28 Jun - 07:03:06 10° WNW 07:12:22 59° NNE 07:21:59 10° E daylight
28 Jun - 09:07:58 10° WNW 09:17:21 64° SW 09:27:07 10° SE daylight
28 Jun - 11:15:11 10° W 11:20:52 17° SW 11:26:40 10° SSW daylight
29 Jun - 00:23:00 10° SSW 00:31:03 36° SE 00:39:07 10° ENE visible
29 Jun - 02:25:56 10° WSW 02:35:07 80° NNW 02:44:30 10° ENE visible
29 Jun - 04:31:59 10° W 04:40:49 47° N 04:49:55 10° ENE visible
29 Jun - 06:37:52 10° WNW 06:47:04 56° NNE 06:56:35 10° E visible
29 Jun - 08:42:44 10° WNW 08:52:10 69° SW 09:01:58 10° SE daylight
29 Jun - 10:49:29 10° W 10:55:46 19° SW 11:02:12 10° SSW daylight
29 Jun - 23:58:09 10° S 00:05:57 32° SE 00:13:46 10° ENE visible
30 Jun - 02:00:42 10° WSW 02:09:54 85° NNW 02:19:15 10° ENE visible
30 Jun - 04:06:39 10° W 04:15:30 48° N 04:24:35 10° ENE visible
30 Jun - 06:12:38 10° WNW 06:21:46 54° NNE 06:31:13 10° E visible
30 Jun - 08:17:31 10° WNW 08:26:58 74° SW 08:36:47 10° SE daylight
30 Jun - 10:23:54 10° W 10:30:40 22° SW 10:37:36 10° S daylight
30 Jun - 23:33:20 10° S 23:40:52 29° SE 23:48:22 10° ENE visible
01 Jul - 01:35:30 10° SW 01:44:41 89° NW 01:54:01 10° ENE visible
01 Jul - 03:41:21 10° W 03:50:11 49° N 03:59:16 10° ENE visible
01 Jul - 05:47:24 10° WNW 05:56:27 53° NNE 06:05:49 10° E visible
01 Jul - 07:52:19 10° WNW 08:01:46 79° SW 08:11:35 10° SE daylight
01 Jul - 09:58:22 10° WNW 10:05:33 24° SW 10:12:56 10° S daylight
01 Jul - 23:08:35 10° S 23:15:46 26° SE 23:22:56 10° ENE visible
02 Jul - 01:10:19 10° SW 01:19:31 86° SE 01:28:48 10° ENE visible
02 Jul - 03:16:01 10° W 03:24:53 50° NNW 03:33:57 10° ENE visible
02 Jul - 05:22:09 10° WNW 05:31:09 51° NNE 05:40:26 10° E visible
02 Jul - 07:27:06 10° WNW 07:36:33 84° SW 07:46:22 10° SE daylight
02 Jul - 09:32:54 10° WNW 09:40:27 27° SW 09:48:12 10° S daylight
02 Jul - 22:43:54 10° S 22:50:42 24° SE 22:57:28 10° ENE visible
